FW9852 Weather Reports


Display with metric or nautical units.
time (UTC)temp
F
wind
direction
speed
MPH
gust
MPH
rain 1hr
in
rain 24hr
in
rain mn
in
humidity
%
barometer
mb
20260508134555 58 119 7.0 15.0 0.00 0.00 0.00 27 1022.4
20260508133101 59 88 7.0 16.0 0.00 0.00 0.00 27 1022.4
20260508131555 59 101 6.0 13.0 0.00 0.00 0.00 26 1022.5
20260508124558 59 134 8.0 17.0 0.00 0.00 0.00 28 1022.4
20260508123056 59 136 5.0 16.0 0.00 0.00 0.00 29 1022.4
20260508121608 59 55 6.0 14.0 0.00 0.00 0.00 29 1022.6
20260508120057 59 131 6.0 14.0 0.00 0.00 0.00 28 1022.7
20260508114556 59 93 7.0 16.0 0.00 0.00 0.00 32 1022.7
20260508113108 59 146 8.0 15.0 0.00 0.00 0.00 32 1022.6
20260508111604 59 97 4.0 12.0 0.00 0.00 0.00 35 1022.5
20260508104557 58 109 5.0 12.0 0.00 0.00 0.00 33 1022.7
20260508103107 58 355 5.0 14.0 0.00 0.00 0.00 36 1022.6
20260508101556 57 102 7.0 16.0 0.00 0.00 0.00 37 1022.6
20260508100058 57 120 5.0 14.0 0.00 0.00 0.00 36 1022.7
20260508094610 57 103 5.0 12.0 0.00 0.00 0.00 37 1022.7
20260508093059 56 96 8.0 15.0 0.00 0.00 0.00 35 1022.7
20260508091605 57 82 5.0 14.0 0.00 0.00 0.00 36 1022.7
20260508090058 57 82 5.0 11.0 0.00 0.00 0.00 37 1022.7
20260508084555 57 25 5.0 12.0 0.00 0.00 0.00 39 1022.7
20260508083144 57 70 6.0 11.0 0.00 0.00 0.00 38 1022.6
20260508081603 56 103 6.0 11.0 0.00 0.00 0.00 39 1022.5
20260508080100 56 63 4.0 11.0 0.00 0.00 0.00 38 1022.6
20260508074555 55 53 4.0 9.0 0.00 0.00 0.00 41 1022.6
20260508073104 54 110 3.0 9.0 0.00 0.00 0.00 42 1022.4
20260508071558 54 77 2.0 9.0 0.00 0.00 0.00 46 1022.3
20260508070059 53 91 3.0 7.0 0.00 0.00 0.00 47 1022.4
20260508064610 52 44 1.0 6.0 0.00 0.00 0.00 51 1022.3
20260508063058 51 98 1.0 4.0 0.00 0.00 0.00 54 1022.2
20260508061603 50 96 3.0 6.0 0.00 0.00 0.00 54 1022.2
20260508060107 49 73 1.0 6.0 0.00 0.00 0.00 57 1022.0
20260508054605 48 115 1.0 4.0 0.00 0.00 0.00 61 1021.9
20260508053104 46 51 1.0 3.0 0.00 0.00 0.00 64 1021.8
20260508051600 44 100 1.0 3.0 0.00 0.00 0.00 68 1021.6
20260508050059 43 101 0.0 2.0 0.00 0.00 0.00 72 1021.5
20260508044556 42 0 0.0 2.0 0.00 0.00 0.00 77 1021.4
20260508043059 40 0 0.0 1.0 0.00 0.00 0.00 82 1021.3
20260508041604 38 0 0.0 0.0 0.00 0.00 0.00 86 1021.0
20260508040113 36 0 0.0 0.0 0.00 0.00 0.00 92 1020.9
20260508034559 33 0 0.0 0.0 0.00 0.00 0.00 94 1020.8
20260508033102 31 0 0.0 0.0 0.00 0.00 0.00 96 1020.7
20260508031600 29 0 0.0 1.0 0.00 0.00 0.00 94 1020.5
20260508030124 28 0 0.0 0.0 0.00 0.00 0.00 94 1020.4
20260508024605 28 0 0.0 0.0 0.00 0.02 0.00 93 1020.3
20260508023058 28 0 0.0 1.0 0.00 0.02 0.00 93 1020.1
20260508021600 29 0 0.0 1.0 0.00 0.02 0.00 93 1020.1
20260508020057 29 0 0.0 0.0 0.00 0.02 0.00 94 1019.9
20260508014555 29 0 0.0 0.0 0.00 0.03 0.00 94 1019.8
20260508013058 29 0 0.0 0.0 0.00 0.03 0.00 93 1019.8
20260508011609 29 0 0.0 1.0 0.00 0.03 0.00 93 1019.7
20260508010106 29 0 0.0 0.0 0.00 0.03 0.00 93 1019.7
20260508004604 29 0 0.0 0.0 0.00 0.03 0.00 93 1019.5
20260508003110 30 0 0.0 0.0 0.00 0.03 0.00 93 1019.3
20260508001559 30 0 0.0 0.0 0.00 0.03 0.00 93 1019.1
20260508000057 30 0 0.0 0.0 0.00 0.03 0.00 93 1019.0
20260507234559 30 0 0.0 0.0 0.00 0.05 0.00 92 1018.9
20260507233059 30 0 0.0 1.0 0.00 0.05 0.00 92 1018.8
20260507231609 31 0 0.0 0.0 0.00 0.05 0.00 92 1018.6
20260507230058 31 0 0.0 0.0 0.00 0.05 0.00 92 1018.5
20260507224606 31 0 0.0 0.0 0.00 0.05 0.00 92 1018.3
20260507223057 32 0 0.0 0.0 0.00 0.05 0.00 92 1018.2
20260507221617 32 0 0.0 0.0 0.00 0.05 0.00 92 1018.2
20260507220104 32 0 0.0 0.0 0.00 0.05 0.00 91 1018.1
20260507214610 33 0 0.0 0.0 0.00 0.05 0.00 91 1017.9
20260507213109 33 0 0.0 0.0 0.00 0.05 0.00 91 1017.6
20260507211556 34 0 0.0 0.0 0.00 0.05 0.00 91 1017.4
20260507204602 35 0 0.0 0.0 0.00 0.05 0.05 90 1017.0
20260507203100 36 0 0.0 0.0 0.00 0.05 0.05 89 1016.8
20260507201557 36 0 0.0 0.0 0.00 0.05 0.05 89 1016.7
20260507200057 37 0 0.0 0.0 0.00 0.05 0.05 88 1016.6
20260507194601 38 0 0.0 0.0 0.00 0.05 0.05 86 1016.4
20260507193110 39 0 0.0 0.0 0.00 0.05 0.05 85 1016.1
20260507191600 40 0 0.0 1.0 0.00 0.05 0.05 85 1016.1
20260507190104 41 0 0.0 0.0 0.00 0.05 0.05 82 1016.0
20260507184556 42 0 0.0 0.0 0.00 0.05 0.05 79 1015.7
20260507183101 44 0 0.0 0.0 0.00 0.05 0.05 78 1015.6
20260507181611 45 0 0.0 1.0 0.00 0.05 0.05 75 1015.5
20260507180104 47 0 0.0 2.0 0.00 0.05 0.05 72 1015.3
20260507174608 48 41 0.0 2.0 0.00 0.05 0.05 70 1015.0
20260507173112 49 118 2.0 6.0 0.00 0.05 0.05 68 1014.8
20260507171614 49 48 1.0 6.0 0.00 0.05 0.05 68 1014.6
20260507170104 50 91 1.0 4.0 0.00 0.05 0.05 67 1014.3
20260507164612 50 105 2.0 7.0 0.00 0.05 0.05 67 1014.1
20260507163106 50 105 2.0 7.0 0.00 0.05 0.05 67 1014.3
20260507161612 50 103 3.0 8.0 0.00 0.05 0.05 67 1014.1
20260507154558 49 101 2.0 6.0 0.00 0.05 0.05 70 1014.0
20260507153058 49 95 3.0 10.0 0.00 0.05 0.05 70 1014.0
20260507151558 49 82 3.0 7.0 0.00 0.05 0.05 73 1013.9
20260507150058 47 57 3.0 9.0 0.00 0.05 0.05 73 1014.0
20260507144559 47 135 4.0 10.0 0.00 0.05 0.05 73 1014.1
20260507143059 47 34 2.0 7.0 0.00 0.05 0.05 74 1013.9
20260507141602 47 125 2.0 7.0 0.00 0.05 0.05 74 1013.7
20260507140116 47 101 3.0 8.0 0.00 0.05 0.05 74 1013.7